Weather History for North Bend, OR

Change the Weather History Date:

Tuesday, May 1, 2012

  Actual Average Record
Temperature  
Mean Temperature 49 °F 51 °F  
Max Temperature 54 °F 57 °F 79 °F (2014)
Min Temperature 43 °F 45 °F 33 °F (1954)
Degree Days  
Heating Degree Days 16 14  
Month to date heating degree days 16 14  
Since 1 July heating degree days 4235 4200  
Cooling Degree Days 0 0  
Month to date cooling degree days 0 0  
Year to date cooling degree days 0 0  
Moisture  
Dew Point 37 °F    
Average Humidity 66    
Maximum Humidity 76    
Minimum Humidity 54    
Precipitation  
Precipitation 0.00 in 0.12 in 2.04 in (1949)
Month to date precipitation 0.00 0.12  
Year to date precipitation 23.74 30.90  
Sea Level Pressure  
Sea Level Pressure 30.13 in    
Wind  
Wind Speed 8 mph (SW)    
Max Wind Speed 13 mph    
Max Gust Speed 18 mph    
Visibility 10 miles    
Events      
T = Trace of Precipitation, MM = Missing Value Source: NWS Daily Summary

Daily Weather History Graph

Daily Weather History Graph

Search for Another Location

Airport:

Trip Planner

Search our weather history database for the weather conditions in past years. The results will help you decide how hot, cold, wet, or windy it might be!

Date:

Astronomy

May. 01, 2012 Rise Set
Actual Time 6:09 AM PDT 8:19 PM PDT
Civil Twilight 5:37 AM PDT 8:51 PM PDT
Nautical Twilight 4:59 AM PDT 9:29 PM PDT
Astronomical Twilight 4:16 AM PDT 10:12 PM PDT
Moon 3:21 PM PDT (5/1) 3:18 AM PDT (5/1)
Length of Visible Light 15h 13m
Length of Day
14h 10m
Waxing Gibbous, 75% of the Moon is Illuminated
May 1
Waxing Gibbous
May 5
Full
May 12
Last Quarter
May 20
New
May 28
First Quarter

Hourly Weather History & Observations

Time (PDT) Temp. Windchill Dew Point Humidity Pressure Visibility Wind Dir Wind Speed Gust Speed Precip Events Conditions
12:15 AM 46.4 °F 45.2 °F 37.4 °F 71% 30.17 in 10.0 mi South 3.5 mph - N/A   Overcast
12:35 AM 44.6 °F - 37.4 °F 76% 30.17 in 10.0 mi Calm Calm - N/A   Overcast
12:55 AM 44.6 °F 42.2 °F 35.6 °F 71% 30.17 in 10.0 mi SE 4.6 mph - N/A   Mostly Cloudy
1:15 AM 44.6 °F 43.1 °F 37.4 °F 76% 30.17 in 10.0 mi SSE 3.5 mph - N/A   Mostly Cloudy
1:35 AM 46.4 °F - 37.4 °F 71% 30.16 in 10.0 mi Calm Calm - N/A   Mostly Cloudy
1:55 AM 44.6 °F 43.1 °F 37.4 °F 76% 30.16 in 10.0 mi NE 3.5 mph - N/A   Mostly Cloudy
2:15 AM 44.6 °F 42.2 °F 35.6 °F 71% 30.16 in 10.0 mi ESE 4.6 mph - N/A   Mostly Cloudy
2:35 AM 44.6 °F 41.4 °F 37.4 °F 76% 30.16 in 10.0 mi ESE 5.8 mph - N/A   Overcast
2:55 AM 44.6 °F 41.4 °F 37.4 °F 76% 30.16 in 10.0 mi SE 5.8 mph - N/A   Overcast
3:15 AM 44.6 °F 41.4 °F 37.4 °F 76% 30.16 in 10.0 mi ESE 5.8 mph - N/A   Overcast
3:35 AM 44.6 °F 40.2 °F 35.6 °F 71% 30.16 in 10.0 mi SSE 8.1 mph - N/A   Overcast
3:55 AM 44.6 °F 41.4 °F 35.6 °F 71% 30.16 in 10.0 mi SSE 5.8 mph - N/A   Mostly Cloudy
4:15 AM 42.8 °F 39.3 °F 35.6 °F 76% 30.16 in 10.0 mi SSE 5.8 mph - N/A   Overcast
4:35 AM 42.8 °F 38.6 °F 35.6 °F 76% 30.16 in 10.0 mi SSE 6.9 mph - N/A   Mostly Cloudy
4:55 AM 42.8 °F 38.6 °F 35.6 °F 76% 30.15 in 10.0 mi SE 6.9 mph - N/A   Mostly Cloudy
5:15 AM 42.8 °F 38.6 °F 35.6 °F 76% 30.15 in 10.0 mi SE 6.9 mph - N/A   Mostly Cloudy
5:35 AM 42.8 °F 38.6 °F 35.6 °F 76% 30.15 in 10.0 mi SE 6.9 mph - N/A   Overcast
5:55 AM 42.8 °F 39.3 °F 35.6 °F 76% 30.14 in 10.0 mi SSE 5.8 mph - N/A   Overcast
6:15 AM 42.8 °F 38.0 °F 35.6 °F 76% 30.14 in 10.0 mi SSE 8.1 mph - N/A   Overcast
6:35 AM 42.8 °F 40.1 °F 35.6 °F 76% 30.14 in 9.0 mi SSE 4.6 mph - N/A   Overcast
6:55 AM 42.8 °F 41.1 °F 35.6 °F 76% 30.15 in 6.0 mi SSE 3.5 mph - N/A   Overcast
7:15 AM 42.8 °F 38.6 °F 35.6 °F 76% 30.14 in 10.0 mi SSE 6.9 mph - N/A   Overcast
7:35 AM 44.6 °F 40.7 °F 37.4 °F 76% 30.14 in 10.0 mi SSE 6.9 mph - N/A   Overcast
7:55 AM 46.4 °F 42.4 °F 39.2 °F 76% 30.15 in 10.0 mi SE 8.1 mph - N/A   Overcast
8:15 AM 46.4 °F 42.4 °F 37.4 °F 71% 30.15 in 10.0 mi SSE 8.1 mph - N/A   Overcast
8:35 AM 46.4 °F 41.5 °F 39.2 °F 76% 30.14 in 10.0 mi SE 10.4 mph - N/A   Overcast
8:55 AM 46.4 °F 41.9 °F 39.2 °F 76% 30.14 in 10.0 mi South 9.2 mph - N/A   Mostly Cloudy
9:15 AM 46.4 °F 42.9 °F 37.4 °F 71% 30.14 in 10.0 mi SSE 6.9 mph - N/A   Scattered Clouds
9:35 AM 50.0 °F - 39.2 °F 66% 30.14 in 10.0 mi SE 6.9 mph - N/A   Scattered Clouds
9:55 AM 51.8 °F - 39.2 °F 62% 30.13 in 10.0 mi East 5.8 mph - N/A   Mostly Cloudy
10:15 AM 51.8 °F - 39.2 °F 62% 30.13 in 10.0 mi ESE 4.6 mph - N/A   Overcast
10:35 AM 48.2 °F - 35.6 °F 62% 30.13 in 10.0 mi NW 3.5 mph - N/A   Overcast
10:55 AM 51.8 °F - 39.2 °F 62% 30.13 in 10.0 mi West 12.7 mph - N/A   Mostly Cloudy
11:15 AM 48.2 °F - 35.6 °F 62% 30.13 in 10.0 mi West 11.5 mph - N/A   Overcast
11:35 AM 50.0 °F - 35.6 °F 58% 30.13 in 10.0 mi West 9.2 mph - N/A   Overcast
11:55 AM 48.2 °F - 37.4 °F 66% 30.13 in 10.0 mi West 10.4 mph - N/A   Overcast
12:15 PM 48.2 °F - 35.6 °F 62% 30.13 in 10.0 mi West 5.8 mph - N/A   Overcast
12:35 PM 51.8 °F - 37.4 °F 58% 30.13 in 10.0 mi West 10.4 mph - N/A   Overcast
12:55 PM 51.8 °F - 37.4 °F 58% 30.12 in 10.0 mi West 12.7 mph - N/A   Overcast
1:15 PM 51.8 °F - 39.2 °F 62% 30.12 in 10.0 mi West 12.7 mph - N/A   Overcast
1:35 PM 51.8 °F - 37.4 °F 58% 30.12 in 10.0 mi West 10.4 mph - N/A   Overcast
1:55 PM 51.8 °F - 37.4 °F 58% 30.12 in 10.0 mi West 11.5 mph - N/A   Overcast
2:15 PM 51.8 °F - 37.4 °F 58% 30.12 in 10.0 mi West 12.7 mph 17.3 mph N/A   Scattered Clouds
2:35 PM 51.8 °F - 37.4 °F 58% 30.12 in 10.0 mi West 12.7 mph - N/A   Mostly Cloudy
2:55 PM 51.8 °F - 37.4 °F 58% 30.12 in 10.0 mi West 12.7 mph - N/A   Overcast
3:15 PM 51.8 °F - 37.4 °F 58% 30.12 in 10.0 mi West 11.5 mph - N/A   Mostly Cloudy
3:35 PM 51.8 °F - 37.4 °F 58% 30.12 in 10.0 mi West 11.5 mph - N/A   Mostly Cloudy
3:55 PM 53.6 °F - 37.4 °F 54% 30.12 in 10.0 mi West 11.5 mph - N/A   Scattered Clouds
4:15 PM 51.8 °F - 37.4 °F 58% 30.12 in 10.0 mi WNW 12.7 mph - N/A   Mostly Cloudy
4:35 PM 51.8 °F - 35.6 °F 54% 30.12 in 10.0 mi West 11.5 mph - N/A   Overcast
4:55 PM 51.8 °F - 37.4 °F 58% 30.12 in 10.0 mi West 12.7 mph 18.4 mph N/A   Overcast
5:15 PM 51.8 °F - 35.6 °F 54% 30.12 in 10.0 mi West 11.5 mph - N/A   Overcast
5:35 PM 50.0 °F - 35.6 °F 58% 30.11 in 10.0 mi West 10.4 mph - N/A   Overcast
5:55 PM 48.2 °F - 35.6 °F 62% 30.11 in 10.0 mi West 9.2 mph - N/A   Overcast
6:15 PM 50.0 °F - 37.4 °F 62% 30.11 in 10.0 mi West 10.4 mph - N/A   Overcast
6:35 PM 50.0 °F - 35.6 °F 58% 30.10 in 10.0 mi West 11.5 mph - N/A   Overcast
6:55 PM 50.0 °F - 37.4 °F 62% 30.10 in 10.0 mi West 10.4 mph - N/A   Overcast
7:15 PM 48.2 °F - 35.6 °F 62% 30.10 in 10.0 mi WSW 9.2 mph - N/A   Mostly Cloudy
7:35 PM 48.2 °F - 35.6 °F 62% 30.10 in 10.0 mi WSW 9.2 mph - N/A   Overcast
7:55 PM 48.2 °F - 35.6 °F 62% 30.10 in 10.0 mi West 9.2 mph - N/A   Mostly Cloudy
8:15 PM 48.2 °F - 35.6 °F 62% 30.10 in 10.0 mi West 6.9 mph - N/A   Mostly Cloudy
8:35 PM 48.2 °F - 35.6 °F 62% 30.10 in 10.0 mi West 8.1 mph - N/A   Overcast
8:55 PM 48.2 °F - 35.6 °F 62% 30.11 in 10.0 mi West 9.2 mph - N/A   Overcast
9:15 PM 48.2 °F - 35.6 °F 62% 30.11 in 10.0 mi West 9.2 mph - N/A   Overcast
9:35 PM 48.2 °F - 35.6 °F 62% 30.12 in 10.0 mi WNW 10.4 mph - N/A   Mostly Cloudy
9:55 PM 48.2 °F - 35.6 °F 62% 30.11 in 10.0 mi WNW 6.9 mph - N/A   Mostly Cloudy
10:15 PM 48.2 °F - 35.6 °F 62% 30.11 in 10.0 mi WNW 6.9 mph - N/A   Overcast
10:35 PM 48.2 °F - 35.6 °F 62% 30.11 in 10.0 mi WNW 5.8 mph - N/A   Overcast
10:55 PM 48.2 °F - 35.6 °F 62% 30.11 in 10.0 mi WNW 4.6 mph - N/A   Mostly Cloudy
11:15 PM 46.4 °F 45.2 °F 35.6 °F 66% 30.11 in 10.0 mi SSW 3.5 mph - N/A   Mostly Cloudy
11:35 PM 46.4 °F 45.2 °F 35.6 °F 66% 30.11 in 10.0 mi SSE 3.5 mph - N/A   Overcast
11:55 PM 46.4 °F 44.3 °F 37.4 °F 71% 30.11 in 9.0 mi South 4.6 mph - N/A   Overcast